Regional Weather Roundup
Issued by NWS Wakefield, VA

Home | Current Version | Previous Version | Graphics & Text | Print | Product List | Glossary On
Versions: 1 2 3 4 5 6 7 8 9 10 11 12 13 14 15 16 17 18 19 20 21 22 23 24 25 26 27 28 29 30 31 32 33 34 35 36 37 38 39 40 41 42 43 44 45 46 47 48 49 50
000
ASUS41 KAKQ 021915
RWRAKQ

REGIONAL WEATHER ROUNDUP
NATIONAL WEATHER SERVICE WAKEFIELD VA
300 PM EDT SUN AUG 02 2015

Note: "fair" indicates few or no clouds below 12,000 feet with no
significant weather and/or obstructions to visibility. * = Denotes
station may not report precipitation (e.g., rain,snow,etc.),
thunder or fog.

VAZ042-051-052>054-056-022000-
NORTHERN VIRGINIA

CITY           SKY/WX    TMP DP  RH WIND       PRES   REMARKS
WASH NATIONAL  PTSUNNY   87  58  37 SE5       29.94F
DULLES         PTSUNNY   86  55  34 CALM      29.95F
FORT BELVOIR   NOT AVBL
QUANTICO       NOT AVBL
FREDERICKSBRG* PTSUNNY   87  60  40 S3        29.95S
STAFFORD*      PTSUNNY   84  55  37 CALM      30.00S
WARRENTON      MOSUNNY   87  62  42 SW6       29.97S
CULPEPER*      MOSUNNY   82  57  42 NW5       29.97F
MANASSAS*      SUNNY     86  55  35 SW5       29.96S
LEESBURG*      SUNNY     88  59  37 S8        29.97S
WINCHESTER     CLOUDY    86  55  35 SW8       29.97S
FRONT ROYAL*   FAIR      86  59  39 SW7       29.97S
LURAY*         FAIR      88  55  33 S3        29.98F
$$

VAZ048-049-060>072-079>083-022000-
CENTRAL AND SOUTH CENTRAL VIRGINIA

CITY           SKY/WX    TMP DP  RH WIND       PRES   REMARKS
RICHMOND       PTSUNNY   88  62  41 E7        29.95F
CHESTERFIELD*  FAIR      88  55  33 N7        29.96F
PETERSBURG*    PTSUNNY   88  65  45 CALM      29.95F
HANOVER        PTSUNNY   86  63  45 VRB3      29.97F
TAPPAHANNOCK*  PTSUNNY   86  56  36 CALM      29.96S
QUINTON*       FAIR      86  63  45 NE3       29.94F
CHARLOTTSVILLE CLOUDY    81  60  48 S8        29.99S
GORDONSVILLE*  FAIR      81  63  54 CALM      29.98S
ORANGE*        PTSUNNY   82  59  44 CALM      29.99S
LOUISA*        CLOUDY    84  61  45 S5        29.97S
BUMPASS*       FAIR      82  62  50 CALM      29.97F
FARMVILLE*     CLOUDY    85  54  34 N3        29.97F
CREWE*         FAIR     N/A N/A N/A CALM      29.97F
FORT PICKETT*  FAIR      85  57  38 CALM      29.97S
CHASE CITY*    FAIR      87  60  40 CALM      29.97F
CLARKSVILLE*   FAIR      84  61  45 W5        29.97F
SOUTH HILL*    PTSUNNY   85  60  43 CALM      30.02F
LAWRENCEVILLE* FAIR      88  61  40 N6        29.96F
EMPORIA*       PTSUNNY   86  63  45 CALM      29.96F
$$

VAZ088>098-022000-
SOUTHEAST VIRGINIA

CITY           SKY/WX    TMP DP  RH WIND       PRES   REMARKS
NORFOLK        PTSUNNY   85  71  63 NE10      29.93S
VIRGINIA BEACH PTSUNNY   85  73  67 E6        29.94R
NORFOLK NAVAL  PTSUNNY   85  70  60 N13       29.95S
WEST POINT*    CLOUDY    88  62  42 E3        29.95F
SALUDA*        FAIR      84  64  51 E8        29.94F
NEWPORT NEWS   PTSUNNY   87  65  47 NE7       29.94F
LANGLEY AFB    PTSUNNY   84  68  58 N9        29.94S
FORT EUSTIS    CLOUDY    87  62  42 N8        29.92
WILLIAMSBURG*  CLOUDY    90  72  55 CALM      29.95F HX  96
HR EXEC AP*    FAIR      90  73  58 N7        29.95R HX  98
FRANKLIN*      PTSUNNY   89  67  49 N5        29.93F
WAKEFIELD      CLOUDY    87  68  52 N8        29.94F
$$

VAZ020-022-025-037-045-022000-
WEST CENTRAL AND SOUTHWEST VIRGINIA

CITY           SKY/WX    TMP DP  RH WIND       PRES   REMARKS
STAUNTON*      PTSUNNY   84  49  29 SW5       30.03S
WAYNESBORO*    FAIR      80  60  50 S6        30.03S
HOT SPRINGS VA PTSUNNY   71  51  48 SE6       30.13S
LYNCHBURG      CLOUDY    83  57  41 VRB5      30.02F
DANVILLE       MOSUNNY   86  58  38 NE8       29.99F
SOUTH BOSTON*  FAIR      85  58  39 NE5       29.98S
MARTINSVILLE   MOSUNNY   88  50  27 E3        30.02F
ROANOKE        PTSUNNY   82  55  39 SE7       30.04F
BLACKSBURG     PTSUNNY   79  55  43 E6        30.10S
DUBLIN*          N/A     79  53  40 CALM      30.08F
MARION*        MOSUNNY   80  54  40 E3        30.11F
HILLSVILLE*    MOSUNNY   77  54  45 N5        30.08F
RICHLANDS*     FAIR      77  57  49 W3        30.08F
WISE*          SUNNY     82  50  32 E3        30.09F
ABINGDON*      SUNNY     84  45  25 CALM      30.06S
$$

MDZ021>025-VAZ099-100-022000-
SOUTHERN MARYLAND AND THE DELMARVA PENINSULA

CITY           SKY/WX    TMP DP  RH WIND       PRES   REMARKS
PATUXENT RIVER PTSUNNY   88  55  32 VRB3      29.94F
BAY BRIDGE APT   N/A     86  50  28 W5        29.94S
LEONARDTOWN    PTSUNNY   82  54  36 CALM      29.96S
DOVER          SUNNY     87  64  46 SW3       29.91F
GEORGETOWN     PTSUNNY   88  62  41 NE5       29.93F
EASTON         MOSUNNY   88  57  35 W6        29.98S
CAMBRIDGE      PTSUNNY   86  55  35 S3        29.93F
SALISBURY      PTSUNNY   86  62  44 SE6       29.92F
OCEAN CITY     PTSUNNY   81  61  50 E7        29.93F
WALLOPS ISLAND CLOUDY    83  64  52 E7        29.94F
ACCOMACK*      PTSUNNY   82  59  44 E5        29.94S
$$

NCZ012>017-030>032-022000-
NORTH CENTRAL AND EASTERN NORTH CAROLINA

CITY           SKY/WX    TMP DP  RH WIND       PRES   REMARKS
ROANOKE RAPIDS FAIR      88  61  40 CALM      29.94F
RALEIGH        MOSUNNY   88  57  34 E6        29.96F
ELIZABETH CITY MOSUNNY   91  67  44 SW5       29.92S
AHOSKIE*       PTSUNNY   89  64  43 N7        29.93F
EDENTON*         N/A     93  62  34 SW9       29.92S
CURRITUCK*     MOSUNNY   92  60  34 SW9       29.93R
KILL DEVIL HLS SUNNY     94  69  45 SE9       29.92S HX  99
MANTEO         MOSUNNY   88  75  65 S10G16    29.93S HX  97
CAPE HATTERAS  SUNNY     87  76  69 S12       29.95S HX  97
TARBORO*         N/A     93  60  32 CALM      29.94S
GOLDSBORO      SUNNY     93  61  33 NW6       29.91F
WASHINGTON     SUNNY     91  64  40 W8        29.93S
GREENVILLE     MOSUNNY   95  61  31 NW5       29.94F HX  95
NEW BERN       SUNNY     93  62  35 SW5       29.93F
WILMINGTON     CLOUDY    86  73  65 SE9       29.94S
$$

VAZ048-022000-
ELSEWHERE

CITY           SKY/WX    TMP DP  RH WIND       PRES   REMARKS
HARRISBURG PA  PTSUNNY   87  58  37 SW9       29.91F
BALTIMORE      PTSUNNY   88  52  29 SW9       29.93F
ANNAPOLIS      MOSUNNY   83  57  41 SE9       29.93F
ANDREWS AFB    MOSUNNY   88  54  31 VRB5      29.94F
PHILADELPHIA   FAIR      89  51  27 W9        29.92S
HENDERSON NC   SUNNY     86  52  31 NW3       29.97F
GREENSBORO     MOSUNNY   87  54  32 VRB3      29.98F
ROCKY MOUNT    SUNNY     94  58  29 VRB7      29.93F
$$

VAZ100-022000-
MARINE

STATION/POSITION TIME  TEMP    WIND        PRES    WAVE   SWELL
                       AIR SEA DIR/SP/G            HT/PER HT/PER
                 (UTC) (F)     (DEG/KT/KT) (MB)    (FT/S) (FT/S)
BRANDYWINE LGT   1800   79 76  270/  1/  2 1014.3F
CAPE MAY NJ      1800   80 74  290/  7/  8 1013.6F
LEWES DE         1800   78 74   10/  4/  4 1013.9F
15NM E FENWICK I 1850   79 81   60/  2/  4 1013.9F   2/ 7   2/ 7
OCEAN-CITY-INLET 1800   80 73  100/  7/  9 1013.2F
WACHAPREAGUE VA  1818   82 85   70/  8/ 11 1014.0F
GOOSES REEF MD   1900   85 84     CALM     1014.9F
COVE POINT MD    1800   80     360/  6/  7 1015.0F
SOLOMONS ISLAND  1800      83                N/A
BISHOPS HEAD MD  1800   85 85  290/  2/  5 1013.2F
PINEY POINT MD   1800          280/  2/  3   N/A
POTOMAC MD       1900   84 83   50/  4/  4 1012.6F   0
CAMBRIDGE MD     1800   83 85  340/  5/  7 1013.1F
LEWISETTA VA     1800   84 84   60/  3/  5 1013.8F
RAPPAHANNOCK LGT 1800          360/ 10/ 11 1014.5F
STINGRAY PT      1900   83 83   20/  8/ 10 1014.0F   1/ 2
YORK RVR RNG VA  1800   82      50/ 11/ 13 1013.5F
YORKTOWN VA      1800   84 83   20/  9/ 12 1013.7F
JAMESTOWN VA     1900   84 87   70/  4/  6   N/A
DOMINION TERM VA 1800   84      20/  9/ 12 1013.5F
KIPTOPEKE VA     1800      81   80/  7/ 12   N/A
CHES BAY BRIDGE  1800   80 78   50/  8/ 10 1013.2F
CAPE HENRY VA    1800   79      30/  9/ 12   N/A
CHESAPEAKE LGHT  1800   80      20/ 11/ 12 1014.1F
WILLOUBY STN VA  1800   81      40/ 11/ 13 1014.7F
CAPE HENRY BUOY  1828      81                N/A     2/10
1ST LANDING BUOY 1900      81              1013.5R   1/ 3
CAPE CHARLES BUO 1826      80                N/A     2/11   2/11
OFFSHORE WE BUOY 1811      86                N/A     2/ 7   2/ 7
64NM E OF VA BCH 1850   82 83  160/ 14/ 16 1013.1F   3/11   2/11
DUCK PIER NC     1800   85 80  120/  6/  7 1012.6F
44100 DUCK FRF   1824      83                N/A     2/12   2/12
44056 DUCK FRF   1811      82                N/A     2/13
OREGON INLET NC  1800   84 80  120/  8/ 11 1013.7R
HATTERAS NC      1800   86 81  170/  6/ 10 1014.1R
DIAMOND SHLS NC  1850   82 86  180/ 14/ 17 1014.3F   3/11   2/11
CAPE LOOKOUT NC  1900   83     170/ 14/ 16 1014.0F
$$


USA.gov is the U.S. government's official web portal to all federal, state and local government web resources and services.